This demonstration page uses our WeatherBlox Daily Observations layout. Learn more.

Left ArrowRight Arrow

Hourly Observations for November 14, 2020

Temp ( °F °C ) Dew Point ( °F °C ) Humidity (%) Winds ( mph kmh ) Pressure ( in mb ) Visibility ( mi km ) Precip ( " mm )
12:56 am 00:56 Clear 33 0.6 25 -3.9 72 72 S 16 26 29.69 1005 10 16 0.00 0.00
1:56 am 01:56 Clear 32 0 26 -3.3 79 79 S 15 24 29.65 1004 10 16 0.00 0.00
2:56 am 02:56 Clear 32 0 28 -2.2 85 85 S 14 22 29.63 1003 10 16 0.00 0.00
3:56 am 03:56 Clear 30 -1.1 28 -2.2 92 92 S 12 19 29.60 1002 10 16 0.00 0.00
4:56 am 04:56 Clear 30 -1.1 28 -2.2 92 92 S 10 17 29.59 1002 10 16 0.00 0.00
5:56 am 05:56 Clear 29 -1.7 27 -2.8 92 92 S 10 17 29.56 1001 10 16 0.00 0.00
6:56 am 06:56 Clear 28 -2.2 27 -2.8 96 96 SW 7 11 29.56 1001 10 16 0.00 0.00
7:56 am 07:56 Sunny 30 -1.1 29 -1.7 96 96 WSW 7 11 29.55 1001 10 16 0.00 0.00
8:56 am 08:56 Sunny 32 0 29 -1.7 88 88 WSW 9 15 29.55 1001 10 16 0.00 0.00
9:56 am 09:56 Sunny 34 1.1 29 -1.7 82 82 W 8 13 29.53 1000 10 16 0.00 0.00
10:56 am 10:56 Sunny 50 10 32 0 50 50 WNW 14 22 29.49 999 10 16 0.00 0.00
11:56 am 11:56 Sunny 59 15 32 0 36 36 NW 15 24 29.47 998 10 16 0.00 0.00
12:56 pm 12:56 Sunny 58 14.4 32 0 38 38 W 15 24 29.46 998 10 16 0.00 0.00
1:56 pm 13:56 Partly Cloudy 59 15 30 -1.1 33 33 W 22 35 29.47 998 10 16 0.00 0.00
2:56 pm 14:56 Sunny 59 15 31 -0.6 35 35 W 23 37 29.48 998 10 16 0.00 0.00
3:56 pm 15:56 Sunny 57 13.9 25 -3.9 29 29 W 23 37 29.52 1000 10 16 0.00 0.00
4:56 pm 16:56 Sunny 52 11.1 27 -2.8 38 38 WNW 32 52 29.59 1002 10 16 0.00 0.00
5:56 pm 17:56 Mostly Clear 44 6.7 30 -1.1 58 58 NW 29 46 29.69 1006 10 16 0.00 0.00
6:56 pm 18:56 Partly Cloudy 41 5 31 -0.6 67 67 NW 25 41 29.76 1008 10 16 0.00 0.00
7:25 pm 19:25 Mostly Cloudy 39 4 30 -1 70 70 NW 30 48 29.81 1009 10 16 0.00 0.00
7:56 pm 19:56 Partly Cloudy 39 3.9 30 -1.1 70 70 WNW 24 39 29.80 1009 10 16 0.00 0.00
8:56 pm 20:56 Clear 36 2.2 28 -2.2 73 73 WNW 10 17 29.84 1010 10 16 0.00 0.00
9:56 pm 21:56 Clear 38 3.3 27 -2.8 65 65 W 20 31 29.85 1011 10 16 0.00 0.00
10:56 pm 22:56 Clear 36 2.2 25 -3.9 64 64 WNW 17 28 29.85 1011 10 16 0.00 0.00
11:56 pm 23:56 Clear 35 1.7 24 -4.4 64 64 WNW 14 22 29.88 1012 10 16 0.00 0.00

Powered by AerisWeather